Showing default

ANGOSAT 2, 54033

Orbit data source: Space-Track

ANGOSAT 2, 54033 is a payload satellite owned by GGPEN (AO) in GEO that was launched on Wed, 12 Oct 2022 UTC via a PROTON-M/DM-3 launch vehicle from the Tyuratam Missile And Space Complex (TTMTR). Payloads include a variety of satellites, spacecraft, and rockets equipped with specific instruments for various scientific and technological missions. These include communications satellites like Starlink; space stations such as the ISS; scientific satellites like the Hubble; Earth observation satellites from companies like Planet Labs, Umbra, and HawkEye 360; GPS; miniature CubeSats for education and research; and military/defense satellites.

Not visible in the next 10 days
ANGOSAT 2 details
Identifier
54033, 2022-131A
Orbit
GEO
Last TLE update21 hours ago
Origin
Flag of AOGGPEN (AO / AGO)
ManufacturerResehetnev ISS
MissionOperational Civil Communications
Bus & MotorEKSPRESS-1000N, AOCS
Mass2,150 kg wet, ~1,800 kg dry
Launch date (UTC)
2022-10-12 (2 years ago)
Launch vehicle
PROTON-M/DM-3
Launch site
Tyuratam Missile And Space Complex (TTMTR)
Object type
Payload
Rocket body
Debris
Shape & HBRBox + 2 Pan, 15 m
Radar Cross Section16.987 m², Large (>1 m²)

Expand to show TLE details & history

TLE from 21 hours ago
0 ANGOSAT 2
1 54033U 22131A   24361.10530406  .00000164  00000-0  00000-0 0  9990
2 54033   0.0375 123.9133 0001008 176.8850 215.2105  1.00273264  8074
Epoch: 2024-12-26T02:31Z
Definitive object data (Epoch: 2024-12-26T02:31:38.27Z)
Latitude0.02356°
Longitude22.99577°
Altitude35,789.137 km
Speed3.074 km/s
True Right ascension10h 23m 58s
True Declination0° 01' 25"
Sunlit
Object was in daylight at TLE epoch
Visualization TLE readout
Latitude0.01852°
Longitude-22.01165°
Altitude35,789.758 km
Speed3.074 km/s
Apparent Right ascension07h 43m 26s
Apparent Declination-5° 06' 42"
Sunlit
Object is in daylight
Visualization observer readout
Local Sidereal Time22:51:26
Azimuth63.226° ENE
Elevation-35.323°
Doppler factor1
Orbital elements
Apogee altitude35,791.501 km
Perigee altitude35,783 km
Semi-major axis42,165.388 km
Eccentricity0.0001008
Inclination0.0375°
RAAN123.9133°
Arg. of periapsis176.885°
True anomaly215.20384°
Mean anomaly215.2105°
Eccentric anomaly215.20717°
Mean motion0.25067 °/min
BSTARUnknown
Orbital period1436.13 mins
Loading historical data...
54033 neighbors
Authenticating...
Loading maneuver chart data...
Loading historical data...
Loading historical data...
Loading historical data...
Loading historical data...
Loading historical data...
Loading historical data...
Loading historical data...
Other satellites on launch #131 in the year 2022 (2022-10-12 UTC)

ANGOSAT 2 Visibility forecast

Observer location: undefined°, undefined

ANGOSAT 2 is not visible in the next 10 days
Span
Click to sort rows by Start time (UTC) header in descending order
Start Az.
Max El. time (UTC)
Max El. Az.
Max El.
End time (UTC)
End Az.
|